Regional Weather Roundup
Issued by NWS

Home | Current Version | Previous Version | Text Only | Print | Product List | Glossary Off
Versions: 1 2 3 4 5 6 7 8 9 10 11 12 13 14 15 16 17 18 19 20 21 22 23 24 25 26 27 28 29 30 31 32 33 34 35 36 37 38 39 40 41 42 43 44 45 46 47 48 49 50

000
ASUS43 KDTX 170201
RWRMI
MICHIGAN HOURLY REGIONAL WEATHER ROUNDUP
NATIONAL WEATHER SERVICE DETROIT/PONTIAC MI
900 PM EST FRI FEB 16 2018

NOTE: "FAIR" INDICATES FEW OR NO CLOUDS BELOW 12,000 FEET WITH NO
SIGNIFICANT WEATHER AND/OR OBSTRUCTION TO VISIBILITY.

MIZ047>049-052>055-059>063-066>070-074>076-081>083-170300-
SOUTHEAST LOWER MICHIGAN

CITY           SKY/WX    TMP DP  RH WIND       PRES   REMARKS
ADRIAN         CLOUDY    25  16  68 W5        30.27R WCI  19
ALMA           FAIR      25  16  67 SW5       30.22S WCI  20
ANN ARBOR      FAIR      19  15  84 SW3       30.25R
BAD AXE        FAIR      21  15  76 S3        30.22R
CARO           FAIR      21  17  83 CALM      30.21S
DETROIT CITY   FAIR      25  15  66 S5        30.27R WCI  19
DETROIT        FAIR      25  16  68 S8        30.27R WCI  16
FLINT          FAIR      22  13  68 SW6       30.23S WCI  14
GROSSE ILE     FAIR      26  18  71 SW3       30.26S
HILLSDALE      FAIR      27  18  69 W3        30.23S
HOWELL         FAIR      24  16  71 SW5       30.23S WCI  18

CITY           SKY/WX    TMP DP  RH WIND       PRES   REMARKS
JACKSON        FAIR      24  17  74 S3        30.24S
LAMBERTVILLE   FAIR      25  20  82 CALM      30.28R
LANSING        FAIR      25  16  68 W6        30.24S WCI  18
LAPEER         FAIR      21  14  75 S3        30.23R
MASON          FAIR      25  15  64 CALM      30.24S
MONROE         FAIR      24  21  86 SW3       30.27R
MT. CLEMENS    CLEAR     22  17  78 S5        30.24R WCI  16
PONTIAC        FAIR      24  14  65 S6        30.22R WCI  17
PORT HOPE        N/A     21  13  71 SW3       30.20R
PORT HURON     FAIR      19  14  79 CALM      30.25R
TRI CITIES     FAIR      25  15  66 W7        30.22S WCI  17
MIDLAND        FAIR      22  15  74 CALM      30.21S
TROY           FAIR      28  15  57 S6        30.27R WCI  21
SAGINAW HB     FAIR      28  18  64 SW6       30.22S WCI  22
$$
MIZ043>046-050>051-056>058-064>065-071>073-077>080-170300-
SOUTHWEST LOWER MICHIGAN

CITY           SKY/WX    TMP DP  RH WIND       PRES   REMARKS
BATTLE CREEK   FAIR      21  14  74 SW7       30.25R WCI  12
BENTON HARBOR  FAIR      22  16  78 CALM      30.28R
BIG RAPIDS     FAIR      19  11  72 SW3       30.19S
COLDWATER      FAIR      24  17  73 CALM      30.26R
HOLLAND        FAIR      23  13  65 SW5       30.27R WCI  17
GRAND RAPIDS   FAIR      25  16  68 SW8       30.24R WCI  16
IONIA          FAIR      23  15  74 SW6       30.23S WCI  15
KALAMAZOO      FAIR      24  15  68 SW6       30.27R WCI  17
LUDINGTON      FAIR      24  10  56 W7        30.20S WCI  16
MARSHALL       FAIR      24  15  69 SW3       30.25R
MOUNT PLEASANT FAIR      26  13  58 W3        30.20F
MUSKEGON       FAIR      21   9  59 SW5       30.25S WCI  15
SOUTH HAVEN    FAIR      22  17  80 CALM      30.27S
$$
MIZ016>042-170300-
NORTHERN LOWER MICHIGAN

CITY           SKY/WX    TMP DP  RH WIND       PRES   REMARKS
ALPENA         FAIR      16  10  77 CALM      30.18S
BEAVER ISLAND  FAIR      22  10  60 SW8       30.13F WCI  13
BELLAIRE       FAIR      13   9  81 CALM      30.18F
CADILLAC       FAIR      17   7  63 S5        30.13F WCI  10
CHARLEVOIX     FAIR      21  10  64 S5        30.18F WCI  14
FRANKFORT      FAIR      27  12  54 SW6       30.16F WCI  20
GAYLORD        FAIR      13   8  81 SW5       30.12S WCI   5
GRAYLING       FAIR      18   8  64 CALM      30.14F
HARBOR SPRINGS FAIR      16  10  76 W3        30.14F
HOUGHTON LAKE  FAIR      20   8  60 W3        30.15F
MANISTEE       FAIR      20  10  65 S3        30.18F
OSCODA         FAIR      17   6  61 SW3       30.19R
PELLSTON       FAIR      18   7  62 S5        30.14F WCI  11
ROGERS CITY    FAIR      13   6  76 CALM      30.18S
TRAVERSE CITY  FAIR      21   9  59 SE3       30.15F
$$
MIZ007>008-015-170300-
EASTERN UPPER MICHIGAN

CITY           SKY/WX    TMP DP  RH WIND       PRES   REMARKS
KINROSS        FAIR      13   4  67 S5        30.11F WCI   5
MACKINAC ISLAN FAIR      16   9  71 S8        30.13F WCI   6
NEWBERRY       FAIR      11   1  64 SW8       30.08F WCI  -1
S. S. MARIE    FAIR      11   5  77 S3        30.12S
MUNISING         N/A     16   0  49 SW7       30.07F WCI   6
$$
MIZ004>006-011>014-085-170300-
CENTRAL UPPER MICHIGAN

CITY           SKY/WX    TMP DP  RH WIND       PRES   REMARKS
MANISTIQUE     FAIR      22   1  40 SW6       30.09F WCI  14
ESCANABA       FAIR      17   0  47 SW9       30.11F WCI   6
MENOMINEE      FAIR      18  -1  43 W6        30.16S WCI  10
SAWYER-GWINN   CLEAR     14  -9  34 SW9       30.03F WCI   2
$$
MIZ001>003-009>011-084-170300-
WESTERN UPPER MICHIGAN

CITY           SKY/WX    TMP DP  RH WIND       PRES   REMARKS
IRON MOUNTAIN  FAIR      14  -6  40 S6        30.04F WCI   5
HOUGHTON       FAIR      17  -7  34 SW8       29.97F WCI   7
COPPER HARBOR    N/A     17  -5  37 W5        30.00F WCI  10
IRONWOOD       FAIR      12  -5  46 SW14      30.00F WCI  -3
$$

ABBREVIATIONS USED IN REMARKS
   TC - TEMPERATURE IN CELSIUS
  WCI - WIND CHILL INDEX
   HX - HEAT INDEX
  VSB - VISIBILITY





USA.gov is the U.S. government's official web portal to all federal, state and local government web resources and services.